Location: Bergnershof
(48.9468°N, 10.9431°E)
Time: 22:04:05
(UTC+00:00)

Meteor 1-5 Rocket - Visible Passes

Search period start: 24 June 2021 00:00
Search period end: 04 July 2021 00:00
Orbit: 789 x 915 km, 81.2° (Epoch: 24 June)

Date Brightness Start Highest point End Pass type
(mag) Time Alt. Az. Time Alt. Az. Time Alt. Az.
30 Jun 5.8 02:29:14 10° SSE 02:33:55 33° E 02:38:41 10° NNE visible
01 Jul 5.9 02:17:46 10° SSE 02:22:22 31° E 02:27:03 10° NNE visible
02 Jul 5.9 02:06:20 10° SSE 02:10:50 29° E 02:15:25 10° NNE visible
03 Jul 6.0 01:54:53 10° SE 01:59:17 27° E 02:03:46 10° NNE visible
